Powrót do katalogu

OPS 9313

IDSCS 3

AktywnyMilitariaMEO
NORAD 2217·PAYLOAD·🇺🇸 United States

Wystrzelony Jun 16, 1966 z Cape Canaveral Space Force Station

Loading…

Następne Przeloty (najbliższe 24 godziny)

TLE

ŚwieżeSource: Space-Track

Epoka: Sep 13, 2026, 19:53 UTC

1 02217U 66053D   26256.82902875 -.00000111  00000-0  00000-0 0  9998
2 02217   8.7985  43.2836 0036592 212.0268 147.8333  1.07755027140472

Śledź OPS 9313 w czasie rzeczywistym z AllMySat

Download on the App Store